Location: Newark
(40.4667°N, 5.6000°W)
Time: 23:16:00
(UTC+00:00)

Altair - Visible Passes

Search period start: 11 November 2019 00:00
Search period end: 21 November 2019 00:00
Orbit: 1502 x 1682 km, 47.2° (Epoch: 10 November)

Date Brightness Start Highest point End Pass type
(mag) Time Alt. Az. Time Alt. Az. Time Alt. Az.
11 Nov 9.0 03:18:39 20° SSE 03:21:38 24° SE 03:28:29 10° E visible
11 Nov 7.6 05:16:46 13° SW 05:25:10 75° SE 05:34:28 10° ENE visible
12 Nov 9.0 02:55:46 21° SE 02:56:37 21° SE 03:03:02 10° E visible
12 Nov 7.6 04:53:52 23° SW 05:00:02 71° SE 05:09:16 10° ENE visible
13 Nov 9.2 02:32:44 19° ESE 02:32:44 19° ESE 02:37:30 10° E visible
13 Nov 7.6 04:30:48 36° SSW 04:34:55 66° SE 04:44:04 10° ENE visible
13 Nov 7.6 06:30:39 10° W 06:39:46 65° NNW 06:49:08 10° ENE visible
14 Nov 9.4 02:09:34 14° ESE 02:09:34 14° ESE 02:11:54 10° E visible
14 Nov 7.6 04:07:37 50° S 04:09:48 62° SE 04:18:51 10° ENE visible
14 Nov 7.5 06:05:42 11° W 06:14:33 66° NNW 06:23:54 10° ENE visible
15 Nov 7.7 03:44:20 57° SSE 03:44:42 57° SE 03:53:40 10° ENE visible
15 Nov 7.5 05:42:23 19° W 05:49:20 69° NNW 05:58:42 10° ENE visible
16 Nov 8.0 03:20:57 50° ESE 03:20:57 50° ESE 03:28:27 10° ENE visible
16 Nov 7.4 05:19:00 30° W 05:24:08 71° NNW 05:33:28 10° ENE visible
17 Nov 8.4 02:57:30 38° E 02:57:30 38° E 03:03:14 10° ENE visible
17 Nov 7.3 04:55:33 44° W 04:58:56 74° NNW 05:08:16 10° ENE visible
18 Nov 8.9 02:33:58 27° E 02:33:58 27° E 02:38:00 10° ENE visible
18 Nov 7.3 04:32:00 62° W 04:33:45 77° NNW 04:43:04 10° ENE visible
18 Nov 7.7 06:30:18 10° WNW 06:39:20 57° N 06:48:35 10° E visible
19 Nov 9.3 02:10:24 19° ENE 02:10:24 19° ENE 02:12:46 10° ENE visible
19 Nov 7.2 04:08:26 80° NW 04:08:33 80° NNW 04:17:52 10° ENE visible
19 Nov 7.7 06:06:28 16° WNW 06:14:05 57° N 06:23:19 10° ENE visible
20 Nov 9.6 01:46:47 13° ENE 01:46:47 13° ENE 01:47:31 10° ENE visible
20 Nov 7.5 03:44:48 68° NE 03:44:48 68° NE 03:52:41 10° ENE visible
20 Nov 7.7 05:42:51 23° WNW 05:48:51 57° N 05:58:03 10° ENE visible
